Powrót do katalogu

ATLAS 5 CENTAUR DEB

AktywnyHEO
NORAD 44683·DEBRIS·🇺🇸 United States

Wystrzelony Oct 17, 2018 z Cape Canaveral Space Force Station

Loading…

Następne Przeloty (najbliższe 24 godziny)

TLE

ŚwieżeSource: Space-Track

Epoka: Sep 10, 2026, 18:16 UTC

1 44683U 18079AV  26253.76136644 -.00000201  00000-0  00000-0 0  9999
2 44683  13.4324  23.5343 4708058 339.7472   6.4210  1.83233341 52896

Śledź ATLAS 5 CENTAUR DEB w czasie rzeczywistym z AllMySat

Download on the App Store